DECAYED

STARLINK-1108, 44944 (Decayed)

Orbit data source: Space-Track

STARLINK-1108, 44944 was a payload satellite owned by SpaceX/Seattle (US) in LEO that was launched on Tue, 07 Jan 2020 UTC via an FALCON 9 launch vehicle from the Air Force Eastern Test Range (AFETR). Payload-class satellites include a variety of spacecraft equipped with specific instruments for various scientific and technological missions. These include communications satellites like Starlink; space stations such as the ISS; scientific satellites like the Hubble; Earth observation satellites from companies like Planet Labs, Umbra, and HawkEye 360; GPS; miniature CubeSats for education and research; and military/defense satellites.

Not visible in the next 10 days
Identifier
44944, 2020-001AG
Orbit
Decayed
Last TLE update
8 months ago
Origin
Manufacturer
SpaceX/Seattle
Mission
Decayed Commercial Communications
Bus & Motor
STARLINK, Unknown motor
Mass
260 kg wet, ~248 kg dry
Launch date (UTC)
2020-01-07 (5 years ago)
Launch vehicle
FALCON 9
Launch site
Air Force Eastern Test Range (AFETR)
Object type
Payload
Rocket body
Debris
Shape & HBR
Box + 1 Pan, 8.86 m
Radar Cross Section
13.562 m², Large (>1 m²)

Expand to show TLE details & history

TLE from 8 months ago
0 STARLINK-1108
1 44944U 20001AG  24290.26573889  .15186749  12259-4  32342-2 0  9993
2 44944  53.0272  68.9234 0010605   9.1011  57.4608 16.29851318263670
Epoch: 2024-10-16T06:22Z
TLE epoch observation values (Epoch: 2024-10-16T06:22:39.84Z)
Latitude
47.33789°
Longitude
2.30313°
Altitude
194.359 km
Speed
7.798 km/s
True Right ascension
08h 12m 56s
True Declination
47° 09' 06"
Sunlit
Object was in daylight at epoch
Visualization orbit readout
Visualization observer readout
Orbital elements
Apogee altitude
200.198 km
Perigee altitude
186.26 km
Semi-major axis
6,571.366 km
Eccentricity
0.00106
Inclination
53.0272°
RAAN
68.9234°
Arg. of periapsis
9.1011°
True anomaly
Unknown
Mean anomaly
57.4608°
Eccentric anomaly
Unknown
Mean motion
4.07436 °/min
Orbital period
88.36 mins
BSTAR
0.0032342
Loading maneuver chart data...
Loading SW <> Apogee altitude chart data...

STARLINK-1108 Visibility

Observer location: undefined°, undefined°

This satellite is decayed
Span
Click to sort rows by Start time (UTC) header in descending order
Start Az.
Max El. time (UTC)
Max El. Az.
Max El.
End time (UTC)
End Az.
|